Wind_Speed
18 18 16 14 12 11 11 10 10 10 10 10 10 13 15 16 17 18 18 18 17 16 14 13 12 10 9 9 8 7 6 5 4 4 4 4 3 3 2 2 1 1 1
18 18 17 15 13 11 10 9 9 10 10 11 12 13 15 16 17 18 19 18 18 17 16 15 14 12 11 10 9 9 8 6 5 5 5 5 4 4 3 3 2 2 2
17 17 16 15 14 12 10 7 8 10 11 11 12 13 14 15 15 16 18 19 18 18 18 17 16 14 13 12 11 10 9 8 7 6 6 6 5 5 4 4 4 3 3
15 15 15 15 14 12 10 8 8 9 10 11 11 13 15 15 16 17 19 19 19 18 18 18 17 15 14 13 12 11 11 10 8 7 7 7 6 6 5 5 5 5 5
14 15 14 13 12 11 10 8 8 8 10 11 12 12 15 16 16 17 19 19 19 19 18 18 17 16 15 14 13 12 12 11 10 9 9 8 8 8 7 7 7 7 7
14 14 12 11 10 10 9 8 7 8 10 11 12 13 14 16 17 18 19 20 20 19 19 18 17 17 16 15 14 13 13 12 12 11 11 10 10 9 9 9 9 10 10
12 11 10 9 8 9 8 7 7 8 9 10 11 11 14 16 17 19 20 21 21 20 20 20 19 18 17 16 15 15 15 14 14 13 13 13 12 12 12 12 12 12 13
10 9 9 7 7 7 7 7 7 8 8 10 11 12 13 15 17 20 20 20 21 20 21 20 20 19 17 16 16 16 16 16 16 15 15 15 15 15 15 15 15 15 15
9 8 7 6 6 6 6 6 6 8 9 10 11 12 14 15 17 20 21 21 20 20 20 20 20 20 19 18 18 17 17 17 17 17 17 17 17 17 17 17 17 18 18
9 8 6 6 6 5 5 4 5 7 9 10 11 12 13 15 17 18 20 20 21 20 19 20 20 20 20 20 19 18 19 19 18 19 19 18 18 19 19 20 20 20 21
9 8 8 8 7 5 4 4 5 5 7 9 10 12 13 14 15 17 19 20 20 20 20 20 21 21 21 21 20 20 20 20 20 20 20 20 20 20 21 22 22 23 23
8 7 7 8 7 6 6 5 5 5 6 7 9 10 12 14 15 17 18 18 20 20 20 21 21 21 21 21 21 21 21 21 21 22 22 22 23 23 23 23 24 24 24
8 7 7 7 6 7 7 6 5 6 6 7 8 9 11 13 15 17 18 18 20 20 20 20 20 20 21 22 22 22 22 22 23 23 24 24 24 25 25 25 26 26 27
8 8 7 6 7 7 7 6 7 7 7 7 7 8 10 12 14 16 17 18 19 20 20 21 20 21 21 21 22 23 23 24 24 24 24 25 25 25 26 27 28 28 29
11 10 9 7 8 8 8 7 8 8 7 8 8 8 10 11 13 15 16 16 17 19 19 19 19 20 21 21 22 23 24 24 24 25 25 25 26 27 28 29 30 31 31
13 13 12 10 10 11 10 10 10 9 8 8 8 9 10 11 12 14 15 16 16 17 19 20 20 20 20 21 22 23 23 24 24 25 26 27 28 29 30 31 32 34 35
16 15 15 14 14 13 13 12 11 10 10 10 10 10 10 10 12 13 14 16 17 17 18 19 20 20 20 21 23 24 25 25 26 27 28 28 30 32 33 34 36 37 38
20 18 17 18 18 17 16 16 14 13 12 11 10 10 10 10 10 11 12 15 16 18 19 20 21 21 21 22 23 24 26 26 27 29 30 31 33 34 35 36 37 38 40
22 22 20 20 20 20 18 18 17 16 15 14 13 13 12 12 12 13 13 15 16 17 18 19 20 21 21 22 24 25 26 27 29 30 32 34 34 35 37 38 39 41 42
24 24 23 23 22 22 21 20 19 18 17 17 16 17 16 15 15 16 16 16 17 19 20 20 21 22 23 24 25 26 27 29 31 32 35 36 37 38 39 40 42 44 45
24 24 24 23 23 23 23 21 20 19 19 19 18 18 19 18 18 18 19 19 20 20 21 22 23 24 25 27 27 28 30 32 33 34 35 37 38 39 40 42 44 46 48
25 24 23 23 24 24 24 23 22 22 21 20 20 21 21 21 20 20 21 20 20 19 21 23 24 25 27 28 31 32 33 34 35 36 36 38 39 41 42 44 47 48 50
26 25 25 25 25 25 25 24 23 23 23 22 22 22 22 22 21 21 21 22 22 22 23 24 25 27 28 30 31 32 34 35 36 38 39 40 43 44 45 46 48 49 51
25 25 25 25 24 24 24 24 24 24 23 23 23 23 22 22 22 21 22 23 24 25 26 27 27 29 30 32 33 34 35 37 38 39 40 42 44 45 46 47 49 51 53
24 24 24 24 23 24 24 24 24 24 23 23 23 22 22 22 23 24 24 26 27 28 29 29 30 31 32 34 35 35 36 38 39 41 42 43 45 46 48 49 51 53 54
23 22 22 21 22 22 22 22 23 24 24 25 25 25 25 24 25 25 26 27 29 30 30 31 32 33 34 36 36 36 38 40 42 43 43 45 46 47 49 51 53 54 56
Wind_Direction
321 325 320 315 310 300 291 276 257 244 231 223 215 214 216 211 207 212 214 213 211 208 209 213 215 216 215 212 210 212 212 208 208 210 215 219 216 204 199 199 207 221 238
321 324 320 316 314 305 288 269 255 242 228 223 219 218 213 210 211 213 211 207 208 207 209 212 212 215 215 213 214 215 215 216 217 217 222 226 221 223 225 226 228 231 237
317 319 319 317 313 308 299 275 252 241 226 221 220 214 210 211 211 212 210 210 209 207 209 211 213 215 215 217 218 216 218 222 225 224 226 226 226 231 235 242 246 245 248
312 315 317 316 314 310 302 286 261 243 225 219 219 210 206 209 212 212 209 209 207 208 209 212 213 215 218 220 219 221 223 226 226 230 231 229 231 236 242 247 251 255 259
311 312 312 314 311 305 299 282 259 237 225 221 219 212 210 209 209 208 208 208 209 210 210 212 213 218 221 222 222 224 226 228 229 233 236 236 240 244 249 253 257 260 264
310 310 308 308 305 302 297 276 256 235 229 225 222 216 211 209 210 209 210 212 213 213 214 216 217 220 221 223 224 226 227 230 233 235 239 241 246 249 252 257 261 264 266
308 307 303 305 304 301 291 267 249 239 229 223 221 217 212 214 215 212 213 215 217 217 218 220 221 222 223 225 228 230 231 234 236 238 242 246 249 252 256 261 264 267 270
308 307 306 306 307 302 289 272 250 240 231 225 221 221 217 217 213 212 215 217 219 220 221 223 224 225 227 230 232 234 235 238 239 241 245 250 253 256 259 263 265 269 272
300 303 308 310 312 307 299 279 266 249 236 229 226 224 223 218 215 216 216 217 218 220 222 224 225 227 229 233 237 237 239 241 242 245 249 253 255 257 261 264 267 269 272
306 299 298 302 308 307 308 294 273 257 248 240 233 229 226 221 217 215 215 216 219 221 224 225 227 229 231 234 238 241 241 242 245 248 250 254 257 259 262 265 267 270 272
311 305 304 302 298 296 298 301 292 282 264 245 239 237 233 226 223 220 218 219 220 224 227 227 228 230 232 235 239 242 244 245 248 250 252 255 258 261 264 266 267 269 271
308 309 315 312 298 291 294 293 299 293 276 253 248 246 237 230 229 226 222 221 223 226 230 231 232 233 234 237 240 243 246 249 252 254 255 258 261 263 265 267 269 271 272
298 302 312 317 314 308 305 295 292 289 277 265 257 251 239 231 229 227 226 226 228 229 232 234 235 236 237 239 242 246 250 254 256 258 259 261 264 266 267 269 270 271 273
294 298 300 315 316 310 304 301 297 288 280 270 262 251 240 233 231 227 227 229 230 233 236 239 242 243 242 243 246 249 253 256 258 260 263 264 266 267 269 271 272 273 275
282 288 287 301 306 305 304 305 299 293 284 273 262 251 243 238 234 231 230 230 233 236 238 241 243 245 246 247 251 253 255 258 260 262 264 266 268 270 272 273 274 276 278
276 282 284 288 294 300 299 303 302 292 285 276 264 254 254 240 235 233 233 235 237 239 241 241 244 248 251 252 255 258 260 262 262 264 266 268 269 271 273 275 277 279 280
276 276 277 280 283 288 292 292 294 288 283 279 263 255 256 253 246 244 242 241 241 243 246 245 247 250 253 255 258 259 263 263 265 267 268 268 270 272 275 277 279 281 282
274 274 274 274 279 281 283 284 283 279 277 278 268 257 256 257 253 247 245 245 247 250 252 251 249 252 255 256 259 261 263 264 268 270 270 271 273 275 278 279 281 282 283
273 272 271 273 277 279 280 279 275 271 270 270 265 258 256 254 254 251 250 250 252 254 251 250 248 253 258 262 264 267 267 269 273 275 275 275 276 278 279 280 281 282 283
271 267 268 271 272 274 273 273 272 268 267 266 264 258 254 253 252 251 252 254 255 257 253 254 254 256 260 263 267 271 271 273 276 278 279 279 280 280 280 281 283 284 284
269 266 268 268 269 269 267 265 264 266 264 261 259 256 255 254 256 254 256 257 257 258 256 257 260 260 261 265 270 273 274 275 277 279 281 281 281 281 283 284 286 286 287
266 265 265 264 265 266 263 260 259 261 262 261 257 256 257 256 260 256 257 258 258 259 260 261 264 267 268 270 273 274 275 277 280 281 282 283 283 284 285 286 287 287 287
265 264 265 264 264 263 261 258 256 257 258 257 256 254 256 255 257 257 258 260 260 262 266 267 268 271 272 275 278 279 279 280 281 282 284 285 285 285 286 288 289 289 290
262 263 264 263 262 260 259 256 254 255 254 254 255 253 253 255 259 261 263 265 267 269 269 269 270 274 276 277 279 280 282 283 282 283 284 286 287 288 289 290 291 291 292
263 262 262 261 259 258 257 255 253 252 253 253 253 251 253 257 260 265 268 267 267 269 270 271 273 276 278 279 279 280 280 282 284 285 286 287 288 289 291 291 292 293 293
265 264 260 259 258 257 253 253 253 252 252 253 252 255 258 261 262 264 266 268 268 269 273 273 277 279 280 280 280 281 282 284 286 288 289 290 291 292 293 294 295 295 296
Height
5850 5846 5843 5842 5840 5839 5837 5836 5836 5837 5839 5840 5841 5844 5847 5849 5852 5855 5858 5861 5864 5867 5870 5872 5875 5877 5878 5880 5881 5882 5883 5884 5885 5886 5887 5888 5888 5889 5889 5890 5890 5890 5890
5848 5845 5843 5840 5839 5836 5835 5834 5834 5834 5836 5837 5839 5842 5845 5847 5850 5853 5856 5859 5862 5865 5868 5871 5873 5875 5877 5878 5880 5881 5882 5884 5885 5886 5886 5887 5888 5888 5889 5889 5889 5890 5890
5846 5844 5841 5839 5838 5835 5833 5831 5831 5832 5833 5835 5837 5839 5842 5845 5847 5851 5854 5857 5860 5863 5866 5868 5871 5873 5875 5877 5879 5880 5882 5883 5884 5885 5886 5886 5887 5888 5888 5888 5889 5889 5889
5844 5842 5840 5838 5835 5834 5832 5830 5830 5830 5831 5833 5835 5837 5840 5843 5846 5849 5852 5855 5858 5861 5864 5866 5869 5871 5874 5875 5877 5879 5880 5882 5883 5884 5885 5886 5886 5887 5887 5888 5888 5888 5888
5841 5839 5837 5835 5834 5832 5830 5829 5829 5829 5830 5832 5833 5835 5837 5840 5843 5846 5849 5852 5855 5858 5861 5864 5867 5869 5871 5873 5875 5877 5879 5880 5881 5882 5883 5884 5885 5885 5886 5886 5887 5887 5887
5838 5836 5835 5833 5832 5830 5829 5828 5828 5828 5829 5830 5831 5833 5835 5838 5841 5844 5847 5850 5853 5856 5859 5862 5864 5867 5869 5871 5873 5875 5876 5878 5879 5881 5881 5882 5883 5884 5884 5884 5884 5885 5885
5835 5834 5833 5831 5830 5828 5827 5826 5826 5827 5827 5828 5829 5830 5832 5835 5838 5841 5844 5847 5850 5853 5856 5859 5862 5864 5867 5869 5871 5873 5874 5876 5877 5878 5879 5880 5881 5881 5882 5882 5882 5882 5882
5833 5832 5831 5830 5828 5827 5826 5825 5825 5825 5826 5826 5827 5829 5831 5833 5835 5838 5841 5844 5847 5850 5853 5856 5859 5861 5864 5866 5868 5870 5871 5873 5874 5875 5876 5877 5878 5878 5878 5879 5879 5878 5878
5832 5831 5830 5829 5827 5826 5825 5824 5824 5824 5824 5825 5826 5827 5829 5831 5833 5835 5838 5841 5844 5847 5849 5852 5855 5858 5860 5863 5865 5866 5868 5870 5871 5872 5873 5874 5874 5875 5875 5875 5875 5875 5875
5830 5830 5829 5828 5827 5825 5824 5823 5823 5823 5824 5824 5825 5826 5827 5829 5830 5832 5835 5837 5840 5843 5846 5849 5852 5854 5857 5859 5861 5863 5864 5866 5867 5868 5869 5870 5870 5871 5871 5871 5871 5870 5870
5828 5828 5828 5827 5826 5825 5824 5823 5823 5823 5823 5823 5824 5824 5825 5826 5828 5830 5832 5835 5837 5840 5843 5845 5848 5851 5853 5855 5857 5859 5860 5861 5863 5863 5864 5865 5865 5866 5866 5866 5865 5865 5865
5827 5827 5826 5826 5825 5824 5823 5822 5822 5822 5821 5822 5822 5822 5823 5824 5825 5827 5829 5832 5834 5837 5839 5842 5844 5847 5849 5851 5853 5854 5856 5857 5858 5859 5859 5860 5860 5860 5860 5860 5860 5859 5859
5826 5825 5825 5824 5823 5823 5822 5821 5821 5820 5820 5820 5820 5821 5821 5822 5823 5824 5827 5829 5831 5834 5836 5838 5840 5842 5845 5846 5848 5850 5851 5852 5852 5853 5854 5854 5854 5854 5854 5854 5854 5853 5852
5824 5824 5823 5822 5822 5821 5821 5820 5820 5819 5819 5818 5818 5819 5819 5820 5820 5821 5824 5826 5828 5830 5833 5835 5837 5838 5840 5842 5843 5845 5846 5846 5847 5847 5848 5848 5848 5848 5847 5847 5846 5845 5844
5822 5822 5821 5820 5820 5820 5819 5818 5818 5818 5817 5817 5816 5817 5817 5817 5818 5819 5821 5823 5825 5827 5829 5831 5833 5834 5836 5837 5838 5839 5840 5840 5841 5841 5841 5841 5841 5841 5840 5839 5838 5837 5836
5819 5819 5819 5818 5818 5817 5817 5816 5816 5815 5815 5815 5815 5815 5815 5815 5815 5817 5818 5820 5822 5824 5825 5827 5829 5830 5831 5832 5833 5833 5834 5834 5834 5835 5834 5834 5834 5833 5832 5831 5830 5829 5827
5815 5815 5815 5815 5815 5815 5814 5814 5813 5813 5813 5813 5813 5813 5813 5813 5814 5815 5816 5817 5818 5820 5821 5822 5824 5825 5826 5826 5827 5827 5827 5827 5828 5827 5827 5827 5826 5825 5824 5823 5821 5819 5817
5810 5810 5810 5811 5811 5811 5810 5810 5810 5810 5810 5810 5810 5810 5810 5810 5811 5812 5813 5814 5815 5816 5816 5817 5819 5819 5820 5820 5821 5821 5821 5821 5821 5820 5820 5819 5818 5816 5815 5813 5811 5809 5807
5804 5804 5805 5805 5805 5805 5805 5805 5805 5806 5806 5806 5806 5807 5807 5807 5808 5808 5809 5810 5811 5811 5811 5812 5813 5814 5815 5815 5815 5815 5814 5814 5814 5813 5811 5810 5809 5807 5805 5803 5801 5798 5796
5797 5797 5798 5798 5799 5799 5800 5800 5801 5801 5801 5802 5802 5802 5802 5803 5803 5804 5804 5805 5806 5806 5806 5807 5808 5808 5809 5809 5809 5808 5807 5807 5806 5804 5802 5801 5799 5797 5795 5792 5790 5787 5784
5790 5790 5791 5791 5792 5793 5793 5794 5795 5795 5796 5797 5797 5797 5797 5797 5798 5798 5799 5800 5801 5801 5801 5801 5802 5802 5802 5802 5801 5801 5800 5799 5797 5795 5794 5792 5789 5787 5784 5781 5778 5775 5771
5783 5783 5784 5785 5785 5786 5787 5788 5788 5790 5790 5791 5791 5792 5792 5792 5792 5792 5794 5794 5795 5795 5795 5795 5795 5795 5795 5794 5793 5792 5791 5790 5788 5786 5784 5781 5779 5776 5773 5769 5766 5762 5758
5775 5776 5777 5777 5778 5778 5780 5781 5781 5783 5783 5784 5785 5785 5786 5786 5786 5786 5787 5788 5789 5789 5789 5789 5788 5788 5787 5786 5785 5783 5781 5780 5778 5776 5773 5770 5767 5764 5761 5757 5753 5749 5745
5767 5768 5769 5769 5770 5771 5772 5773 5775 5776 5776 5777 5778 5779 5779 5780 5781 5781 5781 5782 5782 5782 5782 5781 5781 5780 5779 5777 5776 5774 5772 5770 5768 5765 5762 5759 5755 5752 5748 5744 5740 5735 5731
5759 5760 5761 5761 5762 5763 5764 5766 5767 5769 5770 5770 5771 5772 5773 5773 5774 5774 5774 5774 5774 5774 5774 5773 5772 5771 5770 5769 5767 5764 5762 5760 5757 5754 5751 5747 5744 5740 5735 5731 5726 5721 5716
5752 5752 5753 5754 5755 5756 5757 5758 5760 5762 5763 5764 5764 5765 5766 5766 5766 5767 5767 5766 5766 5766 5766 5765 5764 5763 5761 5759 5756 5754 5752 5749 5746 5743 5739 5735 5731 5727 5722 5717 5712 5706 5701